SCP
0 0 0 0 -0 -0 0 0 0 0 0 0 0 0 0 0 0 0 0 0 0 -0 -0 -0 -0 -0 0 0 0 -0 -0 0 0 0 0 0 0 0
0 0 0 0 -0 -0 0 0 0 -0 0 0 0 0 0 0 0 0 0 0 0 0 -0 -0 -0 0 0 0 0 0 0 0 0 0 0 0 0 0
0 0 0 0 -0 -0 0 0 -0 0 0 0 0 0 0 0 0 0 0 0 0 0 0 0 0 0 0 0 0 0 0 0 0 0 0 0 0 0
0 0 0 0 0 -0 0 0 0 0 0 0 0 0 0 0 0 0 0 0 0 0 0 0 0 0 -0 0 -0 -0 0 0 0 0 0 0 -0 -0
0 0 0 0 0 -0 -0 0 0 0 0 0 0 0 0 0 0 0 0 0 0 0 0 0 0 -0 -0 -0 0 0 0 0 0 0 0 -0 -0 -0
0 0 0 0 0 -0 -0 0 0 0 0 0 0 0 0 0 0 0 0 0 0 0 0 0 0 -0 -0 -0 -0 0 0 0 0 0 0 0 -0 -0
0 0 0 0 0 -0 -0 0 0 0 0 0 0 0 0 0 0 0 0 0 0 0 0 0 0 0 0 0 0 0 0 0 0 0 0 0 0 -0
0 0 0 0 0 0 -0 -0 0 0 0 0 0 0 0 0 0 0 0 0 0 0 0 0 0 0 0 0 0 0 0 0 0 0 0 0 0 -0
0 0 0 0 0 0 -0 -0 0 0 0 0 0 0 0 0 0 0 0 0 0 0 0 0 0 0 0 0 0 0 0 0 0 0 0 0 0 -0
0 0 0 0 0 -0 0 -0 0 0 -0 0 0 0 0 0 0 0 0 0 0 0 0 0 0 0 0 0 0 0 0 0 0 0 0 0 0 -0
0 0 0 0 0 -0 -0 -0 -0 0 0 0 0 0 0 0 0 0 0 0 0 0 0 0 0 0 0 0 0 0 0 0 0 0 0 -0 -0 0
0 0 0 0 0 -0 -0 -0 -0 0 0 0 -0 0 0 0 0 0 0 0 0 0 0 0 0 0 0 0 0 0 0 0 0 0 -0 -0 0 0
0 0 0 0 0 -0 -0 -0 -0 -0 0 0 0 0 0 0 0 0 0 0 0 0 0 0 0 0 0 0 0 0 0 0 0 0 0 0 0 0
0 0 0 0 0 0 0 -0 -0 -0 0 0 0 0 0 0 0 0 0 0 0 0 0 0 0 0 0 0 0 0 0 0 0 0 0 0 0 0
0 0 0 0 0 0 0 -0 0 0 0 0 0 0 0 0 0 0 0 0 0 0 0 0 0 0 0 0 0 0 0 0 0 0 0 0 0 0
0 0 0 0 0 0 0 0 0 0 0 0 0 0 0 0 0 0 0 0 0 0 0 0 0 0 0 0 0 0 0 0 0 0 0 0 0 0
0 0 0 0 0 0 0 -0 0 0 0 0 0 0 0 0 0 0 0 0 0 0 0 0 0 0 0 0 0 0 0 0 0 0 0 0 0 0
0 0 0 0 0 0 0 -0 0 0 0 0 0 0 0 0 0 0 0 0 0 0 0 0 0 0 0 0 0 0 0 0 0 0 0 0 0 0
0 0 0 0 0 0 0 0 0 0 0 0 0 0 0 0 0 0 0 0 0 0 0 0 0 0 0 0 0 0 0 0 0 0 0 0 0 0
0 0 0 0 0 0 0 0 0 0 0 0 0 0 0 0 0 0 0 0 0 0 0 0 0 0 0 0 0 0 0 0 0 0 0 0 0 0
0 0 0 0 0 0 0 0 0 0 0 0 0 0 0 0 0 0 0 0 0 0 0 0 0 0 0 0 0 0 0 0 0 0 0 0 0 0
0 0 0 0 0 0 0 0 0 0 0 0 0 0 0 0 0 0 0 0 0 0 0 0 0 0 0 0 0 0 0 0 0 0 0 0 0 0
0 0 0 0 0 0 0 0 0 0 0 0 0 0 0 0 0 0 0 0 0 0 0 0 0 0 0 0 0 0 0 0 0 0 0 0 0 0
Wind_Speed_500mb
44 50 54 64 69 66 69 69 62 53 49 75 63 73 76 73 68 76 84 86 81 73 70 62 54 44 35 25 21 21 18 15 10 7 5 7 6 7
41 48 53 61 67 67 66 61 58 52 38 58 54 54 56 59 62 57 61 61 56 53 48 43 36 30 25 22 22 25 22 16 11 10 10 9 4 12
36 44 51 57 65 69 70 62 58 52 51 49 41 45 52 54 57 55 52 57 50 44 41 37 32 29 28 29 25 19 14 13 14 12 12 8 8 10
33 39 47 55 61 67 68 63 53 46 44 43 38 41 48 48 48 50 48 45 47 46 47 46 41 37 33 28 23 22 22 19 16 16 15 11 11 14
29 35 44 50 57 64 59 60 53 45 44 39 39 34 35 39 42 41 45 43 45 44 41 38 38 37 31 28 30 27 24 21 19 19 16 18 18 19
25 30 37 42 49 54 55 57 52 47 43 42 40 37 31 29 31 33 39 39 43 42 39 40 35 31 32 32 32 28 25 22 23 20 20 21 23 20
22 25 30 35 37 40 47 54 53 47 44 40 40 40 38 34 31 28 33 33 35 40 41 41 38 37 37 35 32 28 25 25 25 25 27 28 21 22
19 23 27 32 36 36 40 42 45 46 44 43 37 37 35 29 23 20 17 14 24 33 44 39 31 35 37 34 29 26 27 30 28 32 31 33 29 33
19 23 28 32 37 37 38 38 41 38 36 37 37 33 31 25 19 17 18 15 23 31 35 34 30 35 33 30 27 27 29 29 29 34 34 36 37 40
20 23 28 32 37 40 37 38 38 37 37 35 35 28 22 20 13 13 14 18 21 22 28 28 28 32 29 29 29 28 29 29 30 34 36 40 53 54
20 25 28 31 35 37 38 37 36 35 32 28 28 25 19 14 10 10 15 14 15 16 19 29 29 31 28 28 30 29 31 29 32 34 35 46 50 53
20 22 26 31 35 37 38 38 37 40 37 31 25 22 18 12 7 8 10 9 18 17 17 29 29 21 21 27 32 33 32 31 33 34 34 43 47 53
20 22 27 32 36 37 37 38 39 36 31 27 25 23 21 16 8 7 8 10 11 6 24 26 16 14 20 24 34 37 35 35 34 32 32 45 46 46
20 23 29 33 35 37 37 35 32 29 26 25 27 27 26 21 15 8 9 4 2 19 28 16 15 15 22 29 32 41 40 39 33 35 37 41 42 43
18 23 29 30 31 34 37 38 33 31 28 25 28 31 28 21 16 15 15 12 21 26 18 18 19 18 18 28 39 44 48 43 37 40 42 42 46 47
16 20 24 28 31 32 39 44 43 37 33 27 26 26 22 20 16 18 25 26 23 26 21 26 23 22 28 34 36 44 39 38 40 43 52 54 51 51
13 16 15 17 26 34 44 48 47 38 32 26 25 28 26 23 19 22 24 24 34 32 31 26 23 23 30 33 38 43 48 44 43 43 43 48 47 46
12 11 12 19 25 36 45 48 51 45 40 30 29 29 28 28 22 20 18 27 37 38 40 39 38 38 41 40 40 44 45 45 41 36 40 48 52 54
9 10 13 17 23 31 39 42 50 49 43 34 31 29 28 28 26 22 21 29 38 39 39 32 24 31 41 53 43 38 43 45 43 40 40 43 48 48
9 10 12 16 19 23 30 35 42 50 47 40 32 30 29 26 26 26 26 30 35 31 19 20 27 38 44 52 54 43 39 43 45 45 46 43 43 41
11 10 11 13 15 18 25 31 38 47 50 43 36 31 31 27 24 24 23 24 24 21 21 22 22 27 41 44 53 48 48 44 46 47 47 47 50 46
15 12 12 13 12 14 20 24 30 38 46 45 41 34 30 29 26 23 21 23 24 23 28 30 32 36 37 41 49 53 51 45 46 44 42 41 49 49
15 15 16 15 12 12 15 19 24 33 40 44 42 38 31 30 27 27 25 26 29 30 26 30 29 32 38 41 48 50 47 45 42 45 45 40 46 49
Wind_Direction_500mb
359 359 1 4 7 9 7 8 3 347 355 8 13 24 33 39 59 79 89 104 116 122 123 127 130 127 119 114 104 91 95 105 119 130 82 57 43 359
359 0 4 8 10 16 12 10 12 5 354 14 20 28 37 46 52 70 81 97 105 112 114 113 113 114 122 125 121 117 122 130 144 118 100 76 17 16
0 2 5 11 13 16 16 10 14 16 17 18 28 35 45 52 59 65 80 86 89 97 103 104 107 111 118 121 131 132 124 121 115 113 97 81 26 33
2 4 6 12 15 18 13 11 14 20 26 26 28 36 44 48 56 64 66 78 88 92 94 96 100 103 103 109 115 112 110 108 103 101 89 66 51 27
4 5 6 11 13 15 11 13 15 21 32 36 41 46 44 46 50 60 67 76 85 87 96 97 97 96 98 99 101 100 97 92 92 92 89 68 48 29
8 6 8 13 17 8 12 14 17 23 30 34 40 45 45 42 48 54 64 74 84 85 93 96 93 93 90 94 98 92 90 85 92 82 84 73 50 58
12 8 11 15 22 15 13 11 16 21 26 33 35 39 39 43 48 52 68 72 85 89 89 92 93 94 90 85 89 87 91 91 81 85 86 59 55 66
21 11 10 13 24 20 17 18 18 17 22 24 28 32 36 45 56 61 53 74 86 98 93 94 93 95 95 87 82 90 93 87 78 90 75 63 68 78
30 16 11 17 19 18 16 18 22 23 24 20 21 24 28 33 50 48 45 75 113 122 114 100 91 87 81 84 81 91 96 87 81 88 71 67 86 86
31 20 13 15 18 14 16 15 20 19 22 22 18 17 24 29 34 49 49 95 115 126 125 102 96 89 88 79 82 89 96 91 87 87 71 77 92 94
31 23 18 18 16 13 12 16 17 19 20 20 19 16 17 30 47 73 81 72 102 120 129 117 113 99 91 82 86 90 99 93 93 84 78 89 94 94
35 30 23 21 16 15 11 10 13 11 9 12 21 25 24 37 60 100 113 85 113 114 135 134 121 105 81 77 87 93 97 93 99 89 94 97 91 90
34 33 32 28 23 19 16 13 10 4 3 11 22 28 29 37 62 124 137 131 108 118 150 148 126 91 101 98 93 100 104 97 94 95 95 101 93 84
41 40 37 31 25 23 22 20 11 8 11 15 28 31 35 44 58 90 147 165 139 151 153 145 116 115 126 118 102 108 108 100 95 100 91 93 89 88
51 49 42 34 32 31 29 25 23 25 27 33 32 29 33 33 62 91 102 102 121 139 138 132 123 120 125 124 119 117 114 108 97 100 102 100 97 94
58 52 46 36 34 39 37 31 28 29 30 37 38 35 37 48 78 100 112 115 120 129 118 126 120 117 123 123 122 123 118 113 104 102 102 100 100 94
67 54 48 45 45 45 38 33 30 35 40 49 48 45 51 67 82 107 115 124 126 123 118 118 117 122 128 123 121 121 124 121 112 104 109 107 97 93
85 72 62 55 49 48 40 30 29 37 43 54 57 57 64 69 87 108 120 132 129 128 125 118 114 114 116 109 111 119 127 123 122 114 108 107 97 93
118 99 80 68 58 53 47 33 31 38 45 55 60 62 73 79 91 102 120 133 132 131 128 121 121 123 120 105 102 113 126 124 121 119 115 104 104 100
139 127 100 81 70 62 56 46 39 42 49 55 63 65 70 82 89 100 117 129 134 138 133 132 136 145 136 118 110 111 121 123 121 115 110 113 110 105
106 134 125 99 85 70 62 53 45 46 49 54 61 67 70 82 93 96 107 128 135 132 129 121 121 126 126 122 114 119 117 118 124 122 114 106 114 109
88 101 116 114 105 85 71 63 55 53 53 55 58 63 71 74 87 101 104 114 128 126 114 111 122 132 136 131 120 120 123 122 129 125 123 111 112 105
96 91 93 101 116 110 89 73 63 58 57 55 58 61 71 74 84 99 107 122 130 128 115 118 127 141 133 122 118 119 127 129 127 132 121 113 111 108
Wind_Speed_850mb
44 50 54 64 69 66 69 69 62 53 49 75 63 73 76 73 68 76 84 86 81 73 70 62 54 44 35 25 21 21 18 15 10 7 5 7 6 7
41 48 53 61 67 67 66 61 58 52 38 58 54 54 56 59 62 57 61 61 56 53 48 43 36 30 25 22 22 25 22 16 11 10 10 9 4 12
36 44 51 57 65 69 70 62 58 52 51 49 41 45 52 54 57 55 52 57 50 44 41 37 32 29 28 29 25 19 14 13 14 12 12 8 8 10
33 39 47 55 61 67 68 63 53 46 44 43 38 41 48 48 48 50 48 45 47 46 47 46 41 37 33 28 23 22 22 19 16 16 15 11 11 14
29 35 44 50 57 64 59 60 53 45 44 39 39 34 35 39 42 41 45 43 45 44 41 38 38 37 31 28 30 27 24 21 19 19 16 18 18 19
25 30 37 42 49 54 55 57 52 47 43 42 40 37 31 29 31 33 39 39 43 42 39 40 35 31 32 32 32 28 25 22 23 20 20 21 23 20
22 25 30 35 37 40 47 54 53 47 44 40 40 40 38 34 31 28 33 33 35 40 41 41 38 37 37 35 32 28 25 25 25 25 27 28 21 22
19 23 27 32 36 36 40 42 45 46 44 43 37 37 35 29 23 20 17 14 24 33 44 39 31 35 37 34 29 26 27 30 28 32 31 33 29 33
19 23 28 32 37 37 38 38 41 38 36 37 37 33 31 25 19 17 18 15 23 31 35 34 30 35 33 30 27 27 29 29 29 34 34 36 37 40
20 23 28 32 37 40 37 38 38 37 37 35 35 28 22 20 13 13 14 18 21 22 28 28 28 32 29 29 29 28 29 29 30 34 36 40 53 54
20 25 28 31 35 37 38 37 36 35 32 28 28 25 19 14 10 10 15 14 15 16 19 29 29 31 28 28 30 29 31 29 32 34 35 46 50 53
20 22 26 31 35 37 38 38 37 40 37 31 25 22 18 12 7 8 10 9 18 17 17 29 29 21 21 27 32 33 32 31 33 34 34 43 47 53
20 22 27 32 36 37 37 38 39 36 31 27 25 23 21 16 8 7 8 10 11 6 24 26 16 14 20 24 34 37 35 35 34 32 32 45 46 46
20 23 29 33 35 37 37 35 32 29 26 25 27 27 26 21 15 8 9 4 2 19 28 16 15 15 22 29 32 41 40 39 33 35 37 41 42 43
18 23 29 30 31 34 37 38 33 31 28 25 28 31 28 21 16 15 15 12 21 26 18 18 19 18 18 28 39 44 48 43 37 40 42 42 46 47
16 20 24 28 31 32 39 44 43 37 33 27 26 26 22 20 16 18 25 26 23 26 21 26 23 22 28 34 36 44 39 38 40 43 52 54 51 51
13 16 15 17 26 34 44 48 47 38 32 26 25 28 26 23 19 22 24 24 34 32 31 26 23 23 30 33 38 43 48 44 43 43 43 48 47 46
12 11 12 19 25 36 45 48 51 45 40 30 29 29 28 28 22 20 18 27 37 38 40 39 38 38 41 40 40 44 45 45 41 36 40 48 52 54
9 10 13 17 23 31 39 42 50 49 43 34 31 29 28 28 26 22 21 29 38 39 39 32 24 31 41 53 43 38 43 45 43 40 40 43 48 48
9 10 12 16 19 23 30 35 42 50 47 40 32 30 29 26 26 26 26 30 35 31 19 20 27 38 44 52 54 43 39 43 45 45 46 43 43 41
11 10 11 13 15 18 25 31 38 47 50 43 36 31 31 27 24 24 23 24 24 21 21 22 22 27 41 44 53 48 48 44 46 47 47 47 50 46
15 12 12 13 12 14 20 24 30 38 46 45 41 34 30 29 26 23 21 23 24 23 28 30 32 36 37 41 49 53 51 45 46 44 42 41 49 49
15 15 16 15 12 12 15 19 24 33 40 44 42 38 31 30 27 27 25 26 29 30 26 30 29 32 38 41 48 50 47 45 42 45 45 40 46 49
Wind_Direction_850mb
359 359 1 4 7 9 7 8 3 347 355 8 13 24 33 39 59 79 89 104 116 122 123 127 130 127 119 114 104 91 95 105 119 130 82 57 43 359
359 0 4 8 10 16 12 10 12 5 354 14 20 28 37 46 52 70 81 97 105 112 114 113 113 114 122 125 121 117 122 130 144 118 100 76 17 16
0 2 5 11 13 16 16 10 14 16 17 18 28 35 45 52 59 65 80 86 89 97 103 104 107 111 118 121 131 132 124 121 115 113 97 81 26 33
2 4 6 12 15 18 13 11 14 20 26 26 28 36 44 48 56 64 66 78 88 92 94 96 100 103 103 109 115 112 110 108 103 101 89 66 51 27
4 5 6 11 13 15 11 13 15 21 32 36 41 46 44 46 50 60 67 76 85 87 96 97 97 96 98 99 101 100 97 92 92 92 89 68 48 29
8 6 8 13 17 8 12 14 17 23 30 34 40 45 45 42 48 54 64 74 84 85 93 96 93 93 90 94 98 92 90 85 92 82 84 73 50 58
12 8 11 15 22 15 13 11 16 21 26 33 35 39 39 43 48 52 68 72 85 89 89 92 93 94 90 85 89 87 91 91 81 85 86 59 55 66
21 11 10 13 24 20 17 18 18 17 22 24 28 32 36 45 56 61 53 74 86 98 93 94 93 95 95 87 82 90 93 87 78 90 75 63 68 78
30 16 11 17 19 18 16 18 22 23 24 20 21 24 28 33 50 48 45 75 113 122 114 100 91 87 81 84 81 91 96 87 81 88 71 67 86 86
31 20 13 15 18 14 16 15 20 19 22 22 18 17 24 29 34 49 49 95 115 126 125 102 96 89 88 79 82 89 96 91 87 87 71 77 92 94
31 23 18 18 16 13 12 16 17 19 20 20 19 16 17 30 47 73 81 72 102 120 129 117 113 99 91 82 86 90 99 93 93 84 78 89 94 94
35 30 23 21 16 15 11 10 13 11 9 12 21 25 24 37 60 100 113 85 113 114 135 134 121 105 81 77 87 93 97 93 99 89 94 97 91 90
34 33 32 28 23 19 16 13 10 4 3 11 22 28 29 37 62 124 137 131 108 118 150 148 126 91 101 98 93 100 104 97 94 95 95 101 93 84
41 40 37 31 25 23 22 20 11 8 11 15 28 31 35 44 58 90 147 165 139 151 153 145 116 115 126 118 102 108 108 100 95 100 91 93 89 88
51 49 42 34 32 31 29 25 23 25 27 33 32 29 33 33 62 91 102 102 121 139 138 132 123 120 125 124 119 117 114 108 97 100 102 100 97 94
58 52 46 36 34 39 37 31 28 29 30 37 38 35 37 48 78 100 112 115 120 129 118 126 120 117 123 123 122 123 118 113 104 102 102 100 100 94
67 54 48 45 45 45 38 33 30 35 40 49 48 45 51 67 82 107 115 124 126 123 118 118 117 122 128 123 121 121 124 121 112 104 109 107 97 93
85 72 62 55 49 48 40 30 29 37 43 54 57 57 64 69 87 108 120 132 129 128 125 118 114 114 116 109 111 119 127 123 122 114 108 107 97 93
118 99 80 68 58 53 47 33 31 38 45 55 60 62 73 79 91 102 120 133 132 131 128 121 121 123 120 105 102 113 126 124 121 119 115 104 104 100
139 127 100 81 70 62 56 46 39 42 49 55 63 65 70 82 89 100 117 129 134 138 133 132 136 145 136 118 110 111 121 123 121 115 110 113 110 105
106 134 125 99 85 70 62 53 45 46 49 54 61 67 70 82 93 96 107 128 135 132 129 121 121 126 126 122 114 119 117 118 124 122 114 106 114 109
88 101 116 114 105 85 71 63 55 53 53 55 58 63 71 74 87 101 104 114 128 126 114 111 122 132 136 131 120 120 123 122 129 125 123 111 112 105
96 91 93 101 116 110 89 73 63 58 57 55 58 61 71 74 84 99 107 122 130 128 115 118 127 141 133 122 118 119 127 129 127 132 121 113 111 108